User: anonymous
Location: Unspecified
(0.0000°N, 0.0000°E)
Time: 11:07:34
(UTC+00:00)
Language:

USA 176 - Orbit

View from above orbital plane
View from above orbital plane
View from above satellite
View from above satellite

Ground track
Ground track

The orbit data is extracted from the following two-line orbital elements,

1 28158U 04004A   14095.43171609 0.00000000  00000-0  00000-0 0    05
2 28158   5.8130  54.9623 0004035  16.6115 343.4270  1.00270000    07
Epoch (UTC): 05 April 2014 10:21:40
Eccentricity: 0.0004035
inclination: 5.8130°
perigee height: 35770 km
apogee height: 35804 km
right ascension of ascending node: 54.9623°
argument of perigee: 16.6115°
revolutions per day: 1.00270000
mean anomaly at epoch: 343.4270°
orbit number at epoch: 0

The dashed part of the orbit path shows where the satellite is in the earth's shadow,  

DLR